When you browse on this site, cookies collect data to enhance your experience and personalize the content and advertising you see.
Visit our Privacy Policy to learn more. By continuing to use the site, you agree to this use of cookies and data.
  • In Lithuania
  • List of Countries
  • For 7 days
  • Water Temperature
  • Satellite Maps
  • Weather Map
  • Weather Widgets
  • user-avatar
    Login

    Hourly Weather Berezovskiy

    Today, 22 February, Friday

    Time Temperature Precipitation Wind Pressure Humidity
    00:00 +2°C° 0 mm 5 mps 748 mmHg 74%
    01:00 +2°C° 0 mm 5 mps 748 mmHg 75%
    02:00 +2°C° 0 mm 6 mps 748 mmHg 76%
    03:00 +2°C° 0 mm 7 mps 747 mmHg 75%
    04:00 +2°C° 0 mm 7 mps 748 mmHg 73%
    05:00 0°C° 0 mm 7 mps 748 mmHg 70%
    06:00 0°C° 0 mm 7 mps 749 mmHg 68%
    07:00 0°C° 0 mm 7 mps 749 mmHg 64%
    08:00 -1°C° 0 mm 7 mps 749 mmHg 60%
    09:00 -1°C° 0 mm 7 mps 750 mmHg 56%
    10:00 0°C° 0 mm 7 mps 750 mmHg 53%
    11:00 +2°C° 0 mm 6 mps 750 mmHg 50%
    12:00 +4°C° 0 mm 6 mps 750 mmHg 47%
    13:00 +5°C° 0 mm 5 mps 750 mmHg 49%
    14:00 +5°C° 0 mm 5 mps 749 mmHg 52%
    15:00 +6°C° 0 mm 4 mps 749 mmHg 49%
    16:00 +5°C° 0.1 mm 3 mps 750 mmHg 55%
    17:00 +6°C° 0.1 mm 2 mps 750 mmHg 61%
    18:00 +6°C° 0.1 mm 1 mps 750 mmHg 68%
    19:00 +6°C° 0.2 mm 1 mps 750 mmHg 70%
    20:00 +6°C° 0.2 mm 1 mps 751 mmHg 73%
    21:00 +6°C° 0.2 mm 1 mps 751 mmHg 75%
    22:00 +5°C° 0.1 mm 2 mps 751 mmHg 75%
    23:00 +4°C° 0.1 mm 2 mps 751 mmHg 76%

    Tomorrow, 23 February, Saturday

    Time Temperature Precipitation Wind Pressure Humidity
    00:00 +3°C° 0.1 mm 3 mps 751 mmHg 76%
    01:00 +3°C° 0 mm 3 mps 751 mmHg 76%
    02:00 +2°C° 0 mm 3 mps 752 mmHg 76%
    03:00 +2°C° 0 mm 3 mps 752 mmHg 76%
    04:00 +2°C° 0 mm 3 mps 752 mmHg 76%
    05:00 +3°C° 0 mm 2 mps 753 mmHg 76%
    06:00 +3°C° 0 mm 2 mps 753 mmHg 77%
    07:00 +2°C° 0 mm 3 mps 753 mmHg 76%
    08:00 +3°C° 0 mm 3 mps 754 mmHg 75%
    09:00 +3°C° 0 mm 4 mps 754 mmHg 75%
    10:00 +4°C° 0 mm 4 mps 754 mmHg 72%
    11:00 +5°C° 0 mm 4 mps 754 mmHg 70%
    12:00 +6°C° 0 mm 5 mps 754 mmHg 68%
    13:00 +7°C° 0 mm 4 mps 754 mmHg 66%
    14:00 +7°C° 0 mm 4 mps 754 mmHg 65%
    15:00 +8°C° 0 mm 3 mps 754 mmHg 64%
    16:00 +8°C° 0 mm 3 mps 754 mmHg 66%
    17:00 +7°C° 0 mm 2 mps 755 mmHg 69%
    18:00 +8°C° 0 mm 1 mps 755 mmHg 72%
    19:00 +7°C° 0.1 mm 2 mps 755 mmHg 73%
    20:00 +6°C° 0.1 mm 2 mps 756 mmHg 75%
    21:00 +6°C° 0.1 mm 2 mps 756 mmHg 77%
    22:00 +6°C° 0 mm 2 mps 756 mmHg 78%
    23:00 +5°C° 0 mm 2 mps 756 mmHg 79%

    Day after tomorrow, 24 February, Sunday

    Time Temperature Precipitation Wind Pressure Humidity
    00:00 +5°C° 0 mm 2 mps 756 mmHg 81%
    01:00 +4°C° 0 mm 2 mps 756 mmHg 82%
    02:00 +4°C° 0 mm 2 mps 756 mmHg 82%
    03:00 +5°C° 0 mm 1 mps 756 mmHg 83%
    04:00 +4°C° 0 mm 1 mps 756 mmHg 86%
    05:00 +2°C° 0 mm 2 mps 756 mmHg 88%
    06:00 +2°C° 0 mm 2 mps 756 mmHg 91%
    07:00 +2°C° 0 mm 2 mps 756 mmHg 90%
    08:00 +2°C° 0 mm 2 mps 757 mmHg 89%
    09:00 +1°C° 0 mm 3 mps 757 mmHg 88%
    10:00 +1°C° 0.2 mm 3 mps 757 mmHg 86%
    11:00 +1°C° 0.2 mm 3 mps 757 mmHg 84%
    12:00 +1°C° 0.2 mm 3 mps 757 mmHg 83%
    13:00 +1°C° 0.5 mm 3 mps 757 mmHg 85%
    14:00 +1°C° 0.5 mm 3 mps 757 mmHg 87%
    15:00 -1°C° 0.5 mm 4 mps 757 mmHg 88%
    16:00 -1°C° 0.2 mm 4 mps 757 mmHg 89%
    17:00 -2°C° 0.2 mm 4 mps 757 mmHg 89%
    18:00 -2°C° 0.2 mm 4 mps 757 mmHg 89%
    19:00 -2°C° 0 mm 4 mps 758 mmHg 88%
    20:00 -2°C° 0 mm 4 mps 758 mmHg 88%
    21:00 -3°C° 0 mm 4 mps 759 mmHg 87%
    22:00 -3°C° 0 mm 4 mps 759 mmHg 86%
    23:00 -4°C° 0 mm 4 mps 759 mmHg 85%

    25 February, Monday

    Time Temperature Precipitation Wind Pressure Humidity
    00:00 -4°C° 0 mm 4 mps 759 mmHg 83%
    01:00 -5°C° 0 mm 4 mps 759 mmHg 85%
    02:00 -5°C° 0 mm 4 mps 758 mmHg 87%
    03:00 -6°C° 0 mm 3 mps 758 mmHg 89%
    04:00 -7°C° 0 mm 4 mps 758 mmHg 87%
    05:00 -7°C° 0 mm 4 mps 758 mmHg 85%
    06:00 -8°C° 0 mm 4 mps 758 mmHg 83%
    07:00 -7°C° 0 mm 5 mps 758 mmHg 79%
    08:00 -6°C° 0 mm 5 mps 758 mmHg 75%
    09:00 -6°C° 0 mm 5 mps 758 mmHg 70%
    10:00 -5°C° 0 mm 6 mps 758 mmHg 63%
    11:00 -3°C° 0 mm 6 mps 757 mmHg 56%
    12:00 -2°C° 0 mm 7 mps 756 mmHg 49%
    13:00 -1°C° 0 mm 7 mps 756 mmHg 50%
    14:00 -1°C° 0 mm 7 mps 755 mmHg 51%
    15:00 0°C° 0 mm 7 mps 755 mmHg 52%
    16:00 -1°C° 0 mm 6 mps 754 mmHg 57%
    17:00 -2°C° 0 mm 6 mps 754 mmHg 63%
    18:00 -2°C° 0 mm 5 mps 753 mmHg 69%
    19:00 -2°C° 0 mm 5 mps 753 mmHg 71%
    20:00 -3°C° 0 mm 6 mps 752 mmHg 73%
    21:00 -3°C° 0 mm 6 mps 752 mmHg 75%
    22:00 -3°C° 0 mm 7 mps 751 mmHg 75%
    23:00 -4°C° 0 mm 8 mps 751 mmHg 75%

    26 February, Tuesday

    Time Temperature Precipitation Wind Pressure Humidity
    00:00 -4°C° 0 mm 8 mps 750 mmHg 75%
    01:00 -4°C° 0 mm 9 mps 749 mmHg 75%
    02:00 -4°C° 0 mm 9 mps 748 mmHg 75%
    03:00 -4°C° 0 mm 9 mps 748 mmHg 75%
    04:00 -4°C° 0.1 mm 10 mps 747 mmHg 77%
    05:00 -3°C° 0.1 mm 10 mps 746 mmHg 78%
    06:00 -3°C° 0.1 mm 10 mps 746 mmHg 79%
    07:00 -3°C° 0.3 mm 10 mps 745 mmHg 79%
    08:00 -2°C° 0.3 mm 10 mps 745 mmHg 78%
    09:00 -2°C° 0.3 mm 10 mps 745 mmHg 77%
    10:00 -2°C° 0.3 mm 10 mps 744 mmHg 77%
    11:00 -2°C° 0.3 mm 10 mps 743 mmHg 77%
    12:00 0°C° 0.3 mm 9 mps 743 mmHg 77%
    13:00 -1°C° 0.1 mm 9 mps 742 mmHg 75%
    14:00 -1°C° 0.1 mm 9 mps 742 mmHg 73%
    15:00 -1°C° 0.1 mm 8 mps 741 mmHg 71%
    16:00 -1°C° 0 mm 8 mps 741 mmHg 74%
    17:00 -2°C° 0 mm 7 mps 741 mmHg 78%
    18:00 -3°C° 0 mm 6 mps 741 mmHg 81%
    19:00 -3°C° 0 mm 6 mps 741 mmHg 83%
    20:00 -4°C° 0 mm 6 mps 741 mmHg 85%
    21:00 -4°C° 0 mm 6 mps 742 mmHg 87%
    22:00 -4°C° 0 mm 6 mps 741 mmHg 87%
    23:00 -4°C° 0 mm 6 mps 741 mmHg 88%

    27 February, Wednesday

    Time Temperature Precipitation Wind Pressure Humidity
    00:00 -5°C° 0 mm 6 mps 741 mmHg 88%
    01:00 -5°C° 0 mm 6 mps 741 mmHg 89%
    02:00 -5°C° 0 mm 5 mps 741 mmHg 89%
    03:00 -5°C° 0 mm 5 mps 741 mmHg 89%
    04:00 -5°C° 0 mm 5 mps 741 mmHg 89%
    05:00 -5°C° 0 mm 5 mps 741 mmHg 88%
    06:00 -5°C° 0 mm 5 mps 741 mmHg 88%
    07:00 -4°C° 0 mm 5 mps 741 mmHg 84%
    08:00 -4°C° 0 mm 5 mps 742 mmHg 80%
    09:00 -2°C° 0 mm 5 mps 742 mmHg 77%
    10:00 -2°C° 0 mm 6 mps 742 mmHg 72%
    11:00 -1°C° 0 mm 6 mps 742 mmHg 68%
    12:00 +1°C° 0 mm 6 mps 742 mmHg 64%
    13:00 +1°C° 0 mm 6 mps 743 mmHg 65%
    14:00 +1°C° 0 mm 6 mps 743 mmHg 66%
    15:00 +1°C° 0 mm 5 mps 743 mmHg 67%
    16:00 0°C° 0.1 mm 5 mps 743 mmHg 72%
    17:00 -1°C° 0.1 mm 4 mps 743 mmHg 77%
    18:00 0°C° 0.1 mm 3 mps 744 mmHg 83%
    19:00 -1°C° 0 mm 3 mps 744 mmHg 85%
    20:00 -2°C° 0 mm 3 mps 745 mmHg 88%
    21:00 -2°C° 0 mm 3 mps 745 mmHg 91%
    22:00 -2°C° 0 mm 3 mps 745 mmHg 91%
    23:00 -2°C° 0 mm 3 mps 745 mmHg 91%
    Show more